• In Hungary
  • List of Countries
  • For 7 days
  • Water Temperature
  • Satellite Maps
  • Weather Map
  • News
  • Weather Widgets
  • user-avatar
    Login

    Hourly Weather Skorogoszcz

    Today, 22 August, Wednesday

    Time Temperature Precipitation Wind Pressure Humidity
    00:00 +19°C° 0 mm 1 mps 753 mmHg 74%
    01:00 +19°C° 0 mm 1 mps 753 mmHg 75%
    02:00 +18°C° 0 mm 1 mps 753 mmHg 75%
    03:00 +18°C° 0 mm 1 mps 753 mmHg 76%
    04:00 +18°C° 0 mm 1 mps 753 mmHg 77%
    05:00 +19°C° 0 mm 1 mps 753 mmHg 74%
    06:00 +20°C° 0 mm 1 mps 753 mmHg 70%
    07:00 +21°C° 0 mm 1 mps 753 mmHg 67%
    08:00 +23°C° 0 mm 1 mps 753 mmHg 62%
    09:00 +24°C° 0 mm 2 mps 753 mmHg 57%
    10:00 +26°C° 0 mm 2 mps 753 mmHg 52%
    11:00 +27°C° 0 mm 2 mps 753 mmHg 49%
    12:00 +28°C° 0 mm 2 mps 752 mmHg 46%
    13:00 +29°C° 0 mm 1 mps 752 mmHg 44%
    14:00 +29°C° 0 mm 1 mps 751 mmHg 43%
    15:00 +29°C° 0 mm 1 mps 751 mmHg 43%
    16:00 +29°C° 0 mm 1 mps 751 mmHg 42%
    17:00 +28°C° 0 mm 1 mps 751 mmHg 47%
    18:00 +26°C° 0 mm 1 mps 751 mmHg 51%
    19:00 +25°C° 0 mm 2 mps 751 mmHg 55%
    20:00 +24°C° 0 mm 2 mps 751 mmHg 57%
    21:00 +23°C° 0 mm 2 mps 751 mmHg 58%
    22:00 +23°C° 0 mm 2 mps 751 mmHg 60%
    23:00 +21°C° 0 mm 3 mps 750 mmHg 62%

    Tomorrow, 23 August, Thursday

    Time Temperature Precipitation Wind Pressure Humidity
    00:00 +21°C° 0 mm 3 mps 750 mmHg 64%
    01:00 +20°C° 0 mm 3 mps 750 mmHg 67%
    02:00 +20°C° 0 mm 3 mps 750 mmHg 68%
    03:00 +20°C° 0 mm 3 mps 750 mmHg 69%
    04:00 +20°C° 0 mm 3 mps 749 mmHg 70%
    05:00 +21°C° 0 mm 3 mps 749 mmHg 68%
    06:00 +22°C° 0 mm 3 mps 749 mmHg 67%
    07:00 +22°C° 0 mm 3 mps 749 mmHg 65%
    08:00 +25°C° 0 mm 3 mps 749 mmHg 60%
    09:00 +27°C° 0 mm 3 mps 749 mmHg 55%
    10:00 +29°C° 0 mm 3 mps 749 mmHg 50%
    11:00 +31°C° 0 mm 3 mps 748 mmHg 46%
    12:00 +33°C° 0 mm 3 mps 748 mmHg 42%
    13:00 +34°C° 0 mm 3 mps 747 mmHg 38%
    14:00 +34°C° 0 mm 3 mps 747 mmHg 38%
    15:00 +34°C° 0 mm 2 mps 747 mmHg 39%
    16:00 +34°C° 0 mm 2 mps 746 mmHg 40%
    17:00 +31°C° 0 mm 2 mps 746 mmHg 44%
    18:00 +30°C° 0 mm 2 mps 746 mmHg 48%
    19:00 +28°C° 0 mm 2 mps 746 mmHg 52%
    20:00 +27°C° 0.2 mm 2 mps 746 mmHg 55%
    21:00 +26°C° 0.2 mm 3 mps 746 mmHg 58%
    22:00 +26°C° 0.2 mm 3 mps 746 mmHg 60%
    23:00 +25°C° 0.2 mm 3 mps 746 mmHg 62%

    Day after tomorrow, 24 August, Friday

    Time Temperature Precipitation Wind Pressure Humidity
    00:00 +24°C° 0.2 mm 3 mps 745 mmHg 64%
    01:00 +24°C° 0.2 mm 3 mps 745 mmHg 65%
    02:00 +24°C° 0 mm 3 mps 745 mmHg 66%
    03:00 +22°C° 0 mm 3 mps 745 mmHg 66%
    04:00 +22°C° 0 mm 3 mps 744 mmHg 66%
    05:00 +24°C° 0 mm 3 mps 744 mmHg 64%
    06:00 +25°C° 0 mm 3 mps 744 mmHg 62%
    07:00 +26°C° 0 mm 3 mps 744 mmHg 60%
    08:00 +27°C° 0 mm 4 mps 744 mmHg 55%
    09:00 +29°C° 0 mm 4 mps 744 mmHg 50%
    10:00 +32°C° 0 mm 5 mps 744 mmHg 45%
    11:00 +32°C° 0 mm 5 mps 743 mmHg 43%
    12:00 +33°C° 0 mm 5 mps 743 mmHg 42%
    13:00 +33°C° 0 mm 5 mps 743 mmHg 40%
    14:00 +32°C° 0 mm 5 mps 743 mmHg 45%
    15:00 +30°C° 0 mm 4 mps 742 mmHg 50%
    16:00 +28°C° 0 mm 4 mps 742 mmHg 55%
    17:00 +27°C° 0.3 mm 3 mps 742 mmHg 61%
    18:00 +26°C° 0.3 mm 3 mps 742 mmHg 67%
    19:00 +24°C° 0.3 mm 3 mps 742 mmHg 73%
    20:00 +23°C° 1.9 mm 2 mps 743 mmHg 77%
    21:00 +21°C° 1.9 mm 2 mps 743 mmHg 82%
    22:00 +22°C° 1.9 mm 1 mps 743 mmHg 86%
    23:00 +20°C° 0.6 mm 2 mps 743 mmHg 87%

    25 August, Saturday

    Time Temperature Precipitation Wind Pressure Humidity
    00:00 +20°C° 0.6 mm 2 mps 743 mmHg 87%
    01:00 +20°C° 0.6 mm 3 mps 743 mmHg 88%
    02:00 +19°C° 0.2 mm 3 mps 744 mmHg 88%
    03:00 +19°C° 0.2 mm 3 mps 744 mmHg 89%
    04:00 +18°C° 0.2 mm 3 mps 744 mmHg 89%
    05:00 +18°C° 0.1 mm 3 mps 744 mmHg 87%
    06:00 +18°C° 0.1 mm 3 mps 744 mmHg 86%
    07:00 +18°C° 0.1 mm 3 mps 745 mmHg 84%
    08:00 +19°C° 0.1 mm 3 mps 745 mmHg 80%
    09:00 +19°C° 0.1 mm 3 mps 745 mmHg 76%
    10:00 +20°C° 0.1 mm 4 mps 745 mmHg 71%
    11:00 +20°C° 0.1 mm 4 mps 745 mmHg 68%
    12:00 +21°C° 0.1 mm 4 mps 746 mmHg 64%
    13:00 +21°C° 0.1 mm 4 mps 746 mmHg 60%
    14:00 +20°C° 0.2 mm 4 mps 746 mmHg 62%
    15:00 +19°C° 0.2 mm 4 mps 746 mmHg 64%
    16:00 +19°C° 0.2 mm 4 mps 746 mmHg 66%
    17:00 +17°C° 0.6 mm 4 mps 746 mmHg 72%
    18:00 +16°C° 0.6 mm 3 mps 746 mmHg 77%
    19:00 +15°C° 0.6 mm 2 mps 747 mmHg 83%
    20:00 +15°C° 0.4 mm 2 mps 747 mmHg 84%
    21:00 +15°C° 0.4 mm 2 mps 747 mmHg 85%
    22:00 +14°C° 0.4 mm 2 mps 747 mmHg 86%
    23:00 +14°C° 0.2 mm 2 mps 747 mmHg 86%

    26 August, Sunday

    Time Temperature Precipitation Wind Pressure Humidity
    00:00 +14°C° 0.2 mm 2 mps 747 mmHg 86%
    01:00 +14°C° 0.2 mm 2 mps 747 mmHg 86%
    02:00 +14°C° 0.1 mm 2 mps 747 mmHg 86%
    03:00 +13°C° 0.1 mm 2 mps 747 mmHg 86%
    04:00 +13°C° 0.1 mm 1 mps 747 mmHg 85%
    05:00 +14°C° 0.2 mm 1 mps 747 mmHg 83%
    06:00 +14°C° 0.2 mm 1 mps 747 mmHg 82%
    07:00 +14°C° 0.2 mm 1 mps 748 mmHg 80%
    08:00 +15°C° 0.2 mm 1 mps 748 mmHg 75%
    09:00 +16°C° 0.2 mm 1 mps 748 mmHg 70%
    10:00 +17°C° 0.2 mm 2 mps 748 mmHg 65%
    11:00 +17°C° 0.1 mm 2 mps 748 mmHg 61%
    12:00 +18°C° 0.1 mm 2 mps 748 mmHg 57%
    13:00 +19°C° 0.1 mm 2 mps 748 mmHg 54%
    14:00 +19°C° 0 mm 2 mps 748 mmHg 53%
    15:00 +19°C° 0 mm 2 mps 748 mmHg 53%
    16:00 +19°C° 0 mm 2 mps 748 mmHg 53%
    17:00 +18°C° 0 mm 2 mps 748 mmHg 58%
    18:00 +18°C° 0 mm 1 mps 749 mmHg 63%
    19:00 +15°C° 0 mm 1 mps 749 mmHg 68%
    20:00 +15°C° 0 mm 1 mps 749 mmHg 70%
    21:00 +14°C° 0 mm 1 mps 750 mmHg 72%
    22:00 +13°C° 0 mm 1 mps 750 mmHg 74%
    23:00 +13°C° 0 mm 1 mps 750 mmHg 74%

    27 August, Monday

    Time Temperature Precipitation Wind Pressure Humidity
    00:00 +13°C° 0 mm 1 mps 750 mmHg 74%
    01:00 +13°C° 0 mm 1 mps 750 mmHg 74%
    02:00 +12°C° 0 mm 1 mps 751 mmHg 75%
    03:00 +12°C° 0 mm 1 mps 751 mmHg 76%
    04:00 +12°C° 0 mm 1 mps 751 mmHg 76%
    05:00 +13°C° 0 mm 1 mps 752 mmHg 73%
    06:00 +14°C° 0 mm 1 mps 752 mmHg 71%
    07:00 +15°C° 0 mm 1 mps 752 mmHg 68%
    08:00 +16°C° 0 mm 2 mps 752 mmHg 62%
    09:00 +18°C° 0 mm 2 mps 752 mmHg 56%
    10:00 +20°C° 0 mm 2 mps 752 mmHg 49%
    11:00 +20°C° 0 mm 2 mps 752 mmHg 46%
    12:00 +21°C° 0 mm 3 mps 752 mmHg 43%
    13:00 +21°C° 0 mm 3 mps 752 mmHg 40%
    14:00 +21°C° 0 mm 3 mps 752 mmHg 40%
    15:00 +21°C° 0 mm 2 mps 752 mmHg 40%
    16:00 +21°C° 0 mm 2 mps 752 mmHg 40%
    17:00 +20°C° 0 mm 2 mps 752 mmHg 44%
    18:00 +18°C° 0 mm 2 mps 753 mmHg 48%
    19:00 +18°C° 0 mm 1 mps 753 mmHg 51%
    20:00 +16°C° 0 mm 1 mps 753 mmHg 53%
    21:00 +16°C° 0 mm 1 mps 753 mmHg 55%
    22:00 +15°C° 0 mm 1 mps 754 mmHg 56%
    23:00 +14°C° 0 mm 1 mps 754 mmHg 58%
    Show more